Location: Unspecified
(35.7250°N, 0.0000°E)
Time: 19:01:18
(UTC+00:00)

Vanguard 1 - Pass Details

Date: 03 July 2019
Orbit: 653 x 3830 km, 34.3° (Epoch: 15 July)

Event Time Altitude Azimuth Distance (km) Brightness Sun altitude
Rises 04:52:33 0° 284° (WNW) 7,486 14.1 -0.1°
Reaches altitude 10° 04:58:15 10° 282° (WNW) 6,088 13.7 0.9°
Maximum altitude 05:14:49 58° 209° (SSW) 2,308 11.8 3.9°
Drops below altitude 10° 05:23:44 10° 133° (SE) 3,438 13.2 5.5°
Sets 05:26:03 0° 128° (SE) 4,128 13.7 6.0°
